Location: Unspecified
(54.1780°N, 0.0000°E)
Time: 17:46:18
(UTC+00:00)

S-56A Canister/Altair - Pass Details

Date: 23 June 2019
Orbit: 632 x 2500 km, 38.9° (Epoch: 17 July)

Event Time Altitude Azimuth Distance (km) Brightness Sun altitude
Rises 17:06:35 0° 240° (WSW) 4,787 12.4 26.8°
Reaches altitude 10° 17:10:56 10° 228° (SW) 3,439 11.6 26.2°
Maximum altitude 17:16:53 22° 182° (S) 2,167 10.0 25.3°
Drops below altitude 10° 17:21:27 10° 133° (SE) 2,562 9.8 24.7°
Sets 17:24:10 0° 117° (ESE) 3,301 10.2 24.3°
